Location: Villingen
(48.0639°N, 8.4609°E)
Time: 16:57:06
(UTC+01:00)

ISS - Pass Details

Date: 22 March 2017
Orbit: 399 x 409 km, 51.6° (Epoch: 25 March)

Event Time Altitude Azimuth Distance (km) Brightness Sun altitude
Exits shadow 03:47:02 16° 110° (ESE) 1,182 -1.1 -25.7°
Drops below altitude 10° 03:47:46 10° 110° (ESE) 1,472 -0.6 -25.6°
Sets 03:49:50 0° 112° (ESE) 2,331 0.5 -25.3°
